This demonstration page uses our WeatherBlox Daily Observations layout. Learn more.

Left ArrowRight Arrow

31.84235, -102.49876

Hourly Observations for May 11, 2022

Temp ( °F °C ) Dew Point ( °F °C ) Humidity (%) Winds ( mph kmh ) Pressure ( in mb ) Visibility ( mi km ) Precip ( " mm )
12:53 am 00:53 Clear 77 25 59 15 54 54 SE 20 31 29.88 1012 10 16 0.00 0.00
1:53 am 01:53 Clear 76 24.4 57 13.9 52 52 SE 20 31 29.91 1013 10 16 0.00 0.00
2:38 am 02:38 Mostly Cloudy 75 23.9 60 15.6 60 60 SSE 15 24 29.90 1013 10 16 0.00 0.00
2:53 am 02:53 Cloudy 75 23.9 62 16.7 64 64 SSE 20 31 29.90 1013 10 16 0.00 0.00
3:17 am 03:17 Partly Cloudy 75 23.9 64 17.8 69 69 SSE 17 28 29.88 1012 10 16 0.00 0.00
3:53 am 03:53 Clear 74 23.3 60 15.6 62 62 SSE 18 30 29.88 1012 10 16 0.00 0.00
4:53 am 04:53 Clear 74 23.3 54 12.2 50 50 S 13 20 29.88 1012 10 16 0.00 0.00
5:53 am 05:53 Clear 73 22.8 53 11.7 50 50 SSW 10 17 29.88 1012 10 16 0.00 0.00
6:53 am 06:53 Clear 70 21.1 52 11.1 53 53 SSE 7 11 29.89 1012 10 16 0.00 0.00
7:53 am 07:53 Sunny 69 20.6 55 12.8 61 61 ESE 14 22 29.95 1014 10 16 0.00 0.00
8:53 am 08:53 Sunny 73 22.8 55 12.8 53 53 ESE 15 24 29.93 1014 10 16 0.00 0.00
9:53 am 09:53 Sunny 77 25 54 12.2 45 45 SSE 16 26 29.93 1014 10 16 0.00 0.00
10:53 am 10:53 Sunny 81 27.2 55 12.8 41 41 SSE 18 30 29.92 1013 10 16 0.00 0.00
11:53 am 11:53 Sunny 85 29.4 55 12.8 36 36 SSE 18 30 29.91 1013 10 16 0.00 0.00
12:53 pm 12:53 Sunny 87 30.6 57 13.9 36 36 S 20 31 29.91 1013 10 16 0.00 0.00
1:53 pm 13:53 Sunny 90 32.2 59 15 35 35 SSE 22 35 29.88 1012 10 16 0.00 0.00
2:53 pm 14:53 Sunny 91 32.8 60 15.6 35 35 S 22 35 29.87 1011 10 16 0.00 0.00
3:53 pm 15:53 Sunny 92 33.3 59 15 33 33 S 21 33 29.84 1010 10 16 0.00 0.00
4:53 pm 16:53 Sunny 92 33.3 60 15.6 34 34 S 22 35 29.81 1009 10 16 0.00 0.00
5:53 pm 17:53 Sunny 91 32.8 62 16.7 38 38 SSE 24 39 29.80 1009 10 16 0.00 0.00
6:53 pm 18:53 Sunny 90 32.2 61 16.1 38 38 SSE 24 39 29.80 1009 10 16 0.00 0.00
7:53 pm 19:53 Sunny 87 30.6 62 16.7 43 43 S 21 33 29.81 1009 10 16 0.00 0.00
8:53 pm 20:53 Clear 85 29.4 62 16.7 46 46 SSE 23 37 29.83 1010 10 16 0.00 0.00
9:53 pm 21:53 Clear 84 28.9 59 15 43 43 SSE 30 48 29.81 1010 10 16 0.00 0.00
10:44 pm 22:44 Mostly Cloudy with Haze 83 28.3 58 14.4 43 43 SSE 21 33 29.78 1008 3 4 0.00 0.00
10:53 pm 22:53 Cloudy with Haze 82 27.8 60 15.6 47 47 SSE 30 48 29.83 1010 3 5 0.00 0.00
11:29 pm 23:29 Partly Cloudy 82 27.8 60 15.6 47 47 SSE 25 41 29.76 1008 8 13 0.00 0.00
11:53 pm 23:53 Clear 81 27.2 61 16.1 51 51 SSE 22 35 29.80 1009 10 16 0.00 0.00

Powered by AerisWeather